Starlink 30311

operational
NORAD ID: 57637 Int'l Des: 2023-122 Owner: SPXS Country: US Constellation: starlink
LEOCIRCULAR

Über Starlink 30311

Beschreibung wird geladen...

Live-Position

3D-Globus wird geladen...

Nächste Überflüge

Höhenverlauf

Altitude vs Time

uPlot chart will show altitude changes over time

Zweizeiliger Elementsatz

1 57637U 23122F 25352.54648113 .00000263 00000-0 34543-4 0 9991
2 57637 43.0024 175.7267 0001174 263.1474 96.9235 15.02548073129975
Epoch: 18. Dez. 2025 • Age: 9 hours

Aktueller Status

Höhe 565.6 km
Geschwindigkeit 7.58 km/s
Subsatellitenpunkt -27.84°S, 31°W
Startdatum 17. Aug. 2023
Alter 2.3 years
Typ internet

Technische Details

Klassifizierung Payload
Masse 730.00 kg
Trockenmasse 700.00 kg
Gesamtmasse 730.00 kg
Länge 0.30 m
Durchmesser 4.10 m
Spannweite 29.00 m
Form Box + pan
Hersteller SPXS
Bus-Typ Starlink V2M
Phasenstatus In Orbit
Besitzer/Staat SPXS/US

Große Konstellationen

Loading constellations...